GFSMA_500_rhum_147.txt.gz
RH
54 44 38 30 24 20 18 17 17 17 18 16 11 7 12 25 32 26 22 34 62 86 92 97 96 95 82 81 70 70 69 60 32 21 25 51 68 77 66 54 58 53 41
68 62 50 41 34 29 27 24 22 21 19 20 14 9 10 26 38 30 37 27 59 77 82 96 96 93 89 74 66 70 70 45 29 20 34 56 69 72 65 64 55 37 36
80 71 64 56 50 44 37 32 28 25 25 24 18 11 11 18 44 38 39 30 65 82 96 93 98 92 83 78 68 86 83 75 46 24 27 44 55 67 53 37 38 33 45
92 81 78 71 70 69 64 54 40 33 32 30 24 16 11 13 49 52 43 33 58 80 94 86 86 90 80 82 70 68 63 52 38 22 22 30 42 43 45 35 32 34 42
94 87 92 90 80 72 87 87 77 58 54 37 32 19 14 12 38 75 55 47 28 64 75 93 93 88 87 60 56 67 70 54 32 39 41 26 27 37 39 36 39 35 42
99 95 98 92 96 80 80 92 97 90 74 61 38 28 20 14 19 71 77 61 43 29 66 85 96 97 90 86 48 54 70 67 61 58 55 55 33 38 44 42 39 44 59
72 100 94 98 82 77 77 83 84 84 90 82 59 45 36 28 27 59 90 67 57 26 39 49 86 97 96 92 44 50 70 66 60 47 54 46 32 41 46 50 72 79 77
60 77 100 95 86 81 67 64 78 98 100 100 81 55 48 38 21 38 76 73 58 30 20 47 85 88 99 91 80 54 63 64 68 70 56 27 38 48 54 75 92 89 86
34 54 92 100 86 66 67 58 72 89 95 98 98 81 66 60 36 31 43 78 56 34 17 18 31 76 93 96 98 91 56 69 64 59 42 32 50 61 94 96 96 100 97
13 17 49 100 91 52 50 65 90 92 75 89 93 95 90 89 72 45 34 69 44 43 35 16 14 25 47 83 93 93 88 55 58 56 55 52 63 53 86 98 98 100 98
8 7 11 50 52 40 41 50 90 98 74 84 96 98 94 90 96 55 53 83 76 61 49 29 15 12 13 41 82 98 96 57 50 49 59 65 53 49 78 98 99 100 100
7 6 5 8 37 35 50 46 47 76 95 70 88 96 97 97 96 57 55 97 97 77 64 49 34 19 15 23 82 94 95 70 72 57 44 42 43 46 63 95 100 100 100
7 5 7 9 15 38 58 92 97 70 96 66 66 81 94 97 95 56 76 84 93 93 78 69 60 39 24 16 28 88 97 92 91 96 87 76 66 72 89 96 95 95 98
36 9 7 24 38 93 92 93 84 95 95 75 83 88 98 98 96 62 83 88 83 87 83 97 76 67 53 26 15 18 66 95 95 92 98 96 97 96 97 96 97 97 93
64 74 82 86 97 96 98 84 97 87 91 95 85 61 94 97 96 66 60 76 94 94 89 98 93 82 71 48 22 20 16 14 58 98 100 100 97 96 96 95 98 98 97
46 52 37 46 85 66 64 85 96 89 86 97 100 86 85 97 97 96 83 61 72 86 82 97 99 90 80 75 41 30 31 22 14 26 60 90 96 96 97 97 96 98 98
61 79 93 97 100 100 99 60 88 78 95 90 94 96 96 97 96 95 84 64 76 59 66 97 98 99 94 77 56 54 38 21 24 72 32 45 57 64 82 96 98 98 97
72 94 96 96 97 78 48 63 54 83 70 60 65 89 97 97 98 82 83 85 86 70 42 84 89 91 98 92 94 91 61 34 22 53 63 61 81 83 87 98 99 98 100
81 75 56 58 69 64 55 66 47 52 53 58 55 64 70 91 98 99 81 74 78 71 60 57 74 80 93 100 97 82 79 42 27 20 46 52 79 96 98 98 98 98 97
80 83 64 72 73 55 76 75 56 58 54 62 60 62 66 70 74 95 98 92 84 83 89 83 76 79 90 89 97 94 84 50 45 29 20 18 24 65 75 94 98 99 99
96 100 90 73 74 86 71 91 73 74 74 73 84 80 72 71 78 85 98 94 93 89 88 89 73 82 94 94 98 86 85 62 48 36 22 20 19 22 28 98 96 99 100
100 98 95 89 80 81 97 84 70 63 58 55 74 88 89 70 73 70 82 100 99 94 99 80 37 46 98 100 98 99 84 66 50 56 43 24 19 22 29 100 99 98 98
64 100 100 93 94 89 84 62 51 60 61 63 63 69 62 73 71 72 66 84 100 99 95 67 31 50 87 90 95 100 93 70 59 68 64 33 26 24 23 27 94 98 98
100 100 100 92 100 82 65 55 50 54 58 58 65 70 73 83 83 70 58 54 83 94 94 92 68 42 55 90 98 87 84 73 69 69 74 49 29 21 21 49 93 97 97
100 100 99 100 97 86 66 68 48 45 47 57 61 51 67 75 95 82 70 63 60 62 76 94 95 71 65 92 88 75 71 65 72 80 83 69 39 24 23 71 98 97 96
97 100 100 100 97 100 96 96 70 45 42 43 50 53 57 62 45 76 84 71 57 56 54 95 95 97 94 59 44 60 60 58 66 83 92 76 51 26 19 28 76 97 98

GFSMA_500_rhum_153.txt.gz
RH
38 35 39 30 26 25 32 45 45 40 36 35 34 32 28 24 20 17 16 18 17 34 34 26 54 70 86 84 81 87 81 79 78 70 65 51 29 31 53 56 64 74 64
38 40 49 47 38 32 20 25 30 37 39 37 40 41 39 33 27 26 19 11 12 21 38 28 53 78 93 83 78 80 80 82 86 89 78 38 24 30 48 58 73 80 69
49 36 36 48 56 41 28 18 22 37 38 33 40 45 51 47 36 30 32 22 12 21 38 32 62 88 97 93 81 69 67 56 66 67 64 40 22 25 44 65 71 74 67
69 48 34 28 48 52 35 30 34 30 42 29 46 49 48 55 48 39 40 38 24 14 28 44 36 81 93 97 89 84 81 53 61 82 73 30 23 28 39 52 56 64 58
86 60 41 35 32 42 30 42 55 42 36 28 21 29 40 38 57 60 50 52 50 26 15 50 48 36 69 88 91 84 85 58 53 64 78 74 41 26 36 43 44 49 52
83 76 72 48 42 36 35 30 42 58 38 19 23 16 22 36 55 81 76 59 66 60 30 27 59 53 32 65 84 91 83 82 54 60 61 44 45 29 38 46 39 41 45
86 100 86 69 47 41 28 17 42 53 70 74 43 33 43 41 39 57 82 70 63 65 47 30 50 62 53 30 65 98 96 84 82 46 61 64 48 40 55 60 60 46 40
67 92 96 97 95 50 24 15 29 51 85 91 61 44 51 56 53 52 60 67 70 72 73 60 37 54 77 36 33 62 98 86 91 52 47 64 66 59 53 49 59 42 60
24 82 86 84 92 100 91 39 54 74 90 72 96 65 40 36 58 51 40 58 58 76 90 79 60 31 66 63 21 34 84 89 91 91 72 53 68 66 70 67 57 34 46
12 23 62 96 61 60 73 94 94 99 93 96 97 99 83 45 52 57 65 44 48 54 78 92 90 39 31 64 21 16 48 87 92 97 97 97 66 67 79 62 59 32 40
17 12 12 39 94 78 57 81 86 96 90 79 88 99 90 63 64 80 82 84 77 55 53 81 98 68 44 60 34 16 14 36 35 77 92 100 100 71 67 58 55 53 54
23 20 12 12 47 40 64 78 84 81 96 93 100 98 96 96 93 87 96 97 99 66 76 73 79 95 96 54 47 30 15 14 14 32 75 95 97 74 64 56 51 54 60
27 25 20 13 12 50 65 71 95 96 96 95 95 98 97 95 92 97 66 76 93 74 76 77 75 91 98 70 76 57 29 22 17 28 85 90 100 92 73 63 59 61 81
27 30 22 15 28 26 76 80 84 85 85 98 86 98 98 97 98 96 92 97 86 67 67 82 84 91 97 98 88 66 54 36 31 15 56 84 89 98 96 89 100 98 98
10 16 26 24 15 33 43 82 81 86 84 90 84 95 86 95 92 97 96 92 88 87 75 56 96 95 98 97 83 66 63 58 46 23 15 30 68 86 96 93 96 94 92
4 4 12 22 23 24 38 60 80 88 91 93 94 85 80 91 96 98 95 96 79 65 76 56 81 92 96 97 98 88 82 70 63 61 25 20 23 24 19 25 55 66 72
3 3 4 8 19 24 30 63 80 78 74 78 98 83 94 92 86 69 74 96 72 60 64 94 85 95 96 97 97 98 95 95 81 78 65 36 28 30 21 14 14 25 34
22 4 3 3 6 17 27 34 52 67 74 100 97 96 96 68 54 84 82 94 79 87 87 92 87 91 94 98 97 96 96 96 93 92 82 65 45 44 42 28 27 22 46
71 31 12 2 4 5 18 31 41 40 77 99 93 91 75 70 72 83 90 90 96 98 98 98 98 82 96 97 94 97 97 97 96 96 91 88 84 83 68 44 23 15 18
91 88 80 58 5 5 12 34 56 87 100 98 92 72 74 75 71 83 78 94 83 84 92 90 97 93 97 99 96 95 92 91 96 96 93 91 92 96 83 69 48 37 18
100 100 74 100 98 57 99 97 67 100 98 97 90 55 47 57 54 49 53 55 63 73 74 98 99 97 100 99 97 91 88 79 97 96 92 86 95 97 97 92 59 39 31
100 100 57 99 99 94 90 99 76 95 96 100 74 50 34 30 38 51 48 54 50 52 59 71 96 97 99 96 93 97 97 93 68 76 96 90 96 84 82 95 75 50 45
100 100 84 87 94 94 84 96 98 99 90 96 70 53 36 31 38 75 69 52 52 45 46 50 82 92 96 96 96 97 97 96 96 99 84 86 90 88 80 90 92 65 49
100 100 100 99 100 100 98 97 97 98 94 98 77 68 51 52 74 76 62 53 52 52 44 45 44 56 77 98 91 96 96 97 95 96 91 88 97 97 98 89 86 77 60
100 100 100 100 100 100 100 100 100 88 87 100 83 78 87 93 79 59 51 49 47 45 40 37 37 39 44 59 88 94 92 97 93 85 94 90 100 96 98 92 93 87 68
100 100 100 100 99 99 97 100 95 100 98 89 68 80 99 84 58 47 45 55 62 57 46 46 46 39 49 55 50 77 96 95 98 86 90 97 98 95 91 90 97 91 68

GFSMA_500_rhum_156.txt.gz
RH
34 31 31 35 39 40 43 38 37 40 44 46 44 38 38 39 38 35 30 25 21 18 19 29 30 34 51 81 73 71 91 70 81 79 77 60 47 32 23 38 56 58 68
59 39 34 43 41 45 45 39 33 40 35 35 40 38 34 39 49 48 43 32 26 18 15 25 39 32 68 85 72 82 83 82 85 86 78 76 74 54 32 33 48 56 74
96 81 60 38 46 54 50 44 36 31 30 22 44 48 29 41 52 60 58 50 36 27 21 14 46 38 83 85 78 72 68 56 59 68 68 78 70 48 27 33 40 54 71
69 90 95 86 70 54 56 50 46 40 43 25 32 43 22 16 43 58 64 64 52 42 32 24 15 53 52 91 94 88 73 66 61 57 66 69 60 35 24 29 47 61 67
72 80 94 100 80 66 48 50 35 46 60 41 42 26 26 26 35 59 68 68 74 60 52 33 17 27 56 39 79 94 92 91 80 48 51 80 68 25 27 32 42 50 60
68 50 64 75 96 79 74 59 46 48 52 60 42 25 23 30 28 38 52 81 75 71 65 57 41 23 41 58 39 58 93 96 91 72 46 58 73 70 48 30 32 33 37
27 39 38 45 95 89 92 97 62 66 71 54 60 63 70 58 33 30 38 36 67 64 72 72 51 44 29 52 67 47 41 82 97 92 74 51 57 48 41 35 34 41 49
26 24 24 25 84 90 89 90 92 69 74 68 80 97 97 91 88 67 45 70 71 70 76 81 76 61 56 44 50 79 36 48 80 96 89 50 48 59 59 40 54 59 59
20 25 24 23 22 50 93 77 87 98 80 67 85 99 95 89 89 98 92 74 66 68 54 67 81 77 68 75 45 68 68 25 51 92 90 81 49 53 64 65 57 51 49
12 10 12 18 23 38 68 64 90 93 97 92 95 84 86 94 95 93 97 97 61 57 50 53 68 88 96 85 75 39 49 42 18 42 84 90 91 76 60 63 66 72 74
10 11 11 12 8 14 22 54 61 93 98 98 96 94 84 93 96 93 94 100 97 83 78 78 70 78 88 93 89 54 51 58 17 20 51 85 89 97 94 72 67 71 62
11 10 8 13 14 10 9 19 33 70 94 91 94 94 96 91 86 93 100 94 96 100 91 93 80 91 86 99 97 92 81 72 31 15 17 30 33 85 97 98 87 72 65
11 14 13 10 15 18 16 12 22 46 67 96 82 92 92 92 97 99 97 97 98 97 95 95 92 88 74 94 94 99 97 65 53 23 17 14 13 50 84 96 78 64 66
7 6 12 16 18 21 22 22 20 28 35 54 76 85 95 99 100 100 96 97 94 96 94 97 96 84 66 86 99 97 97 64 72 60 28 27 19 53 87 97 87 72 66
2 4 4 4 15 22 26 33 24 14 44 29 96 94 76 88 90 98 91 99 98 98 88 100 78 72 64 88 98 96 100 84 90 80 57 38 24 39 84 84 88 92 91
10 3 2 2 3 12 21 25 30 25 40 41 37 76 94 92 96 91 92 86 86 90 84 96 89 76 76 85 82 95 99 98 98 82 68 50 38 14 38 74 86 86 92
59 58 23 3 3 3 11 12 23 31 38 67 55 76 96 97 97 92 88 92 85 74 74 93 91 82 70 87 98 92 96 97 96 92 76 65 58 43 18 19 22 19 18
79 66 66 55 12 3 4 6 12 21 32 34 60 60 90 95 94 95 90 81 80 72 69 78 94 82 76 84 77 84 99 94 96 95 94 79 69 65 52 32 28 30 26
100 87 79 76 66 6 3 5 5 9 20 28 38 54 66 73 81 84 100 94 79 64 60 96 96 89 80 90 85 96 99 93 97 98 97 91 82 83 74 64 46 55 54
100 100 99 76 72 31 79 42 3 5 11 20 30 40 59 69 64 61 74 75 71 70 82 95 96 98 92 97 88 94 99 100 99 97 97 90 90 99 80 71 75 92 77
100 100 99 100 100 73 100 34 6 4 7 12 19 31 35 40 46 68 67 60 75 96 70 96 97 96 99 100 97 100 99 100 98 98 95 96 97 97 89 92 96 94 97
98 100 100 100 100 100 88 92 56 83 10 16 35 43 50 78 75 97 67 82 94 100 97 97 95 82 98 97 99 97 98 95 96 94 93 94 97 94 95 96 98 95 99
100 100 100 100 100 100 98 100 90 88 91 98 100 97 89 90 90 73 57 49 64 70 90 83 62 64 80 96 96 99 100 97 98 99 94 94 89 98 96 96 94 97 97
100 100 100 100 100 100 98 98 100 82 83 100 90 92 99 73 94 55 42 36 39 50 58 48 42 51 54 65 80 97 94 94 96 96 92 94 97 95 92 91 97 96 95
99 100 100 100 100 100 100 100 99 99 100 80 99 97 95 96 72 42 52 48 38 49 56 58 54 54 55 50 48 53 76 97 98 97 97 97 97 95 98 98 92 98 97
96 100 100 100 100 100 97 71 61 79 95 98 81 85 98 97 65 49 55 64 57 60 60 56 50 51 50 47 47 45 48 48 67 96 98 94 98 98 92 97 94 91 97

GFSMA_500_rhum_159.txt.gz
RH
95 77 62 65 67 56 58 61 60 61 42 31 33 33 40 41 44 43 40 45 42 34 26 19 19 27 23 45 69 93 87 96 81 77 76 78 58 41 24 26 35 49 56
68 97 96 99 95 97 83 61 63 56 60 45 39 36 35 34 44 40 36 49 53 46 35 23 14 17 33 66 76 86 82 96 85 75 79 78 74 60 49 34 28 45 56
73 86 96 84 79 93 85 82 83 65 51 54 49 35 31 39 43 42 28 42 56 56 51 38 24 15 33 76 92 86 86 79 81 79 77 80 83 84 82 56 34 38 48
50 79 90 67 100 95 81 83 94 92 54 62 48 53 34 37 44 38 27 35 51 52 53 56 36 24 16 41 87 98 84 73 67 65 51 42 54 65 66 36 29 36 44
36 30 58 72 72 90 98 97 98 88 74 62 58 53 49 28 40 37 34 46 50 56 54 58 58 40 19 22 40 74 95 93 93 91 87 54 42 62 68 43 27 32 37
36 35 34 50 67 72 72 86 96 97 65 73 71 72 74 59 28 19 38 43 63 64 58 55 62 56 43 24 27 46 42 69 94 93 84 79 48 47 71 48 27 32 38
33 34 35 35 46 61 75 75 70 99 84 91 92 91 92 95 93 59 50 63 58 79 67 50 50 70 57 39 25 26 50 50 41 67 89 94 72 46 56 74 65 44 31
23 24 29 34 34 38 51 53 50 65 81 94 94 98 90 91 96 95 85 88 78 90 82 78 60 63 67 72 62 38 27 32 59 36 78 98 94 68 50 54 48 42 38
13 17 19 18 22 29 32 34 32 30 78 98 97 98 96 87 94 92 95 96 97 96 96 96 73 76 66 58 77 71 59 37 38 49 40 62 98 89 55 47 55 54 46
11 10 9 10 14 15 16 26 29 24 37 68 89 85 98 98 96 86 93 95 97 90 96 97 96 83 94 55 58 91 94 78 47 37 39 31 81 95 87 56 54 58 61
16 15 14 12 12 12 12 12 13 24 26 44 61 96 75 91 96 96 90 92 86 94 96 95 97 96 94 75 64 84 83 90 74 31 50 20 21 56 92 95 84 77 66
16 15 16 15 14 13 12 11 10 10 13 29 47 65 70 97 97 96 96 96 91 95 95 95 95 97 97 87 78 82 89 93 83 47 58 38 16 30 72 90 96 99 92
8 9 8 11 13 14 13 12 11 10 10 10 20 37 54 99 97 90 96 97 94 91 96 96 97 96 97 98 84 84 93 95 91 84 87 60 26 15 19 25 20 73 96
2 2 2 2 4 8 12 12 11 11 12 11 11 20 26 47 96 97 96 98 93 96 96 98 92 94 98 92 93 84 86 96 95 88 84 87 42 22 18 17 17 44 80
4 4 2 2 2 2 4 8 11 12 11 16 16 16 20 39 62 100 96 98 95 96 96 98 94 96 95 93 95 85 83 79 92 89 85 83 62 56 36 30 25 47 81
53 45 47 36 29 9 2 2 5 8 11 12 20 23 32 51 59 60 90 98 95 95 93 100 98 94 81 74 73 80 78 81 92 90 98 89 85 84 75 44 27 30 86
77 64 68 43 49 41 36 4 2 4 7 11 17 23 41 46 60 60 94 95 100 96 91 91 98 95 78 72 72 79 81 85 84 96 90 98 93 97 80 55 42 16 40
78 90 89 92 86 81 74 76 12 3 4 8 17 25 31 59 76 63 72 65 88 97 94 95 97 97 84 64 61 74 82 99 84 84 89 89 98 98 86 70 52 40 18
94 94 98 94 96 100 96 79 70 22 3 4 11 18 31 35 63 59 74 65 67 94 96 92 92 93 80 71 72 76 87 85 79 96 97 98 98 98 94 81 63 56 51
100 100 100 98 100 100 99 100 82 64 6 3 6 8 10 37 56 57 69 78 76 90 96 100 89 73 71 69 92 85 72 76 78 93 96 97 100 100 95 98 85 68 63
100 100 100 100 99 100 100 100 89 100 100 26 4 5 8 11 42 41 40 59 60 85 95 95 77 72 67 93 88 98 84 76 95 91 94 95 99 98 98 97 100 83 77
100 100 100 100 100 100 100 100 92 100 100 93 84 99 11 7 15 29 32 52 63 64 58 54 63 66 73 80 98 99 97 85 87 96 94 99 95 98 97 98 98 95 97
100 100 100 100 100 100 99 100 69 89 100 100 69 92 39 9 17 32 39 47 46 44 47 52 64 73 98 97 90 98 98 96 99 98 95 96 90 94 98 98 98 99 98
90 100 100 100 100 100 100 100 100 97 100 100 100 97 32 14 14 29 36 57 62 69 60 66 79 95 100 100 98 97 97 98 96 97 97 94 96 92 96 93 95 96 98
37 66 51 98 100 100 100 100 100 100 100 100 100 99 99 72 94 38 60 96 90 93 76 74 56 71 90 89 93 91 89 84 86 99 97 94 99 89 80 85 94 97 98
20 28 28 28 56 94 100 100 100 71 82 96 99 100 100 100 85 100 88 100 100 97 71 56 60 92 86 71 68 66 58 49 46 46 57 85 98 98 96 95 98 99 100

GFSMA_500_rhum_162.txt.gz
RH
62 72 92 100 81 90 96 80 82 87 62 48 49 45 50 51 44 46 47 48 41 31 45 40 32 20 14 22 36 63 86 91 100 94 83 64 55 47 28 20 24 33 41
43 57 65 72 83 80 86 86 85 69 87 75 58 55 54 48 56 56 45 51 44 27 39 44 46 35 20 19 40 74 94 86 95 94 86 78 75 74 61 43 33 27 33
44 45 44 43 65 79 88 94 97 77 79 77 82 63 65 58 47 60 51 42 41 28 23 40 44 46 35 18 34 80 92 91 90 94 86 84 76 74 73 65 61 40 35
32 36 37 39 42 40 54 94 97 71 84 97 94 97 78 68 63 50 54 45 36 32 34 37 40 51 40 22 28 48 84 86 76 81 81 77 68 63 70 80 77 47 38
23 23 29 35 38 39 38 48 72 79 69 80 100 97 96 79 62 62 48 47 41 29 33 42 41 49 60 42 22 36 53 88 78 78 76 88 87 60 48 58 62 44 36
18 18 21 22 27 37 39 36 47 62 71 86 72 93 99 82 71 59 70 67 45 32 38 36 52 44 61 61 41 29 41 41 76 82 80 84 88 82 57 54 66 53 33
9 11 13 15 19 25 33 39 39 39 59 66 79 55 77 100 70 77 67 79 75 62 44 49 40 53 39 55 60 40 31 47 37 37 40 49 80 90 76 58 62 59 33
9 9 9 10 16 20 23 27 33 33 36 91 73 75 55 79 100 85 97 84 90 80 79 72 67 48 57 44 63 53 40 32 41 44 43 42 36 71 90 71 58 66 70
16 14 11 9 10 11 16 23 23 24 22 31 46 67 80 92 88 100 97 94 96 93 96 92 88 77 86 82 50 57 55 64 46 34 30 46 40 50 82 91 68 56 54
21 17 16 14 11 10 10 12 20 20 20 17 25 42 50 53 67 99 100 99 99 98 99 95 96 96 95 97 96 68 48 54 69 56 47 32 37 37 52 95 91 64 56
23 27 26 24 21 20 16 12 12 15 16 16 17 19 26 33 35 68 100 88 93 100 97 97 97 97 97 98 97 96 70 42 54 75 70 75 34 39 30 69 81 87 64
25 24 23 20 16 14 15 17 17 14 14 16 13 14 16 20 27 29 72 96 94 97 90 96 96 97 97 96 96 98 96 76 48 66 70 72 44 41 38 17 22 59 92
12 13 11 7 6 8 6 5 9 14 16 13 14 13 12 15 15 25 48 85 95 96 99 80 95 97 97 96 98 98 96 92 82 76 75 73 52 68 73 33 15 27 60
3 3 2 2 2 2 2 3 3 2 6 13 13 13 12 11 12 14 32 100 96 100 77 83 95 98 98 97 98 98 96 95 90 89 82 74 74 80 83 66 26 14 18
8 8 26 35 33 24 21 15 5 2 2 2 9 13 12 12 13 12 19 44 72 63 78 94 98 97 96 94 97 98 94 97 100 87 82 76 80 85 76 76 50 26 19
48 42 49 51 49 43 42 46 46 38 7 2 2 7 13 12 13 15 22 26 40 56 40 67 94 97 97 96 95 95 97 98 95 90 81 80 76 78 79 74 55 56 51
71 62 63 66 68 68 82 76 54 35 45 22 2 2 6 12 12 14 21 28 34 43 31 100 93 92 96 96 97 96 95 94 88 95 93 89 70 76 74 87 70 74 75
85 72 68 74 90 90 81 84 70 84 83 57 37 3 2 7 11 13 17 28 46 40 35 66 100 94 88 93 91 86 86 92 87 87 93 84 74 78 74 89 94 78 78
83 88 81 84 100 100 93 83 69 80 78 73 70 37 3 2 10 15 21 27 38 42 41 54 96 100 84 92 94 99 96 91 69 66 77 77 79 91 83 72 94 86 84
65 94 98 85 100 93 89 100 97 71 82 98 89 54 9 2 5 12 27 32 31 47 59 62 74 81 79 95 93 90 80 68 66 69 78 81 97 96 84 92 94 94 95
40 56 99 97 97 92 99 100 100 100 100 79 100 100 89 8 3 11 16 34 40 44 50 74 70 74 76 97 90 93 77 71 77 78 75 79 96 99 84 86 98 97 98
30 33 74 100 100 100 96 93 96 100 100 100 95 100 100 100 30 5 6 12 32 52 58 64 68 87 72 93 94 93 80 74 84 100 90 74 67 67 72 100 100 98 97
12 26 26 85 89 100 100 100 100 90 99 100 100 100 100 100 71 74 18 9 13 49 65 68 54 88 71 97 96 99 87 79 100 100 93 78 60 68 80 87 100 99 97
12 10 12 21 79 33 94 100 100 100 100 100 100 100 100 96 100 100 31 9 9 35 57 65 63 75 63 64 82 86 82 85 96 100 98 92 89 83 94 96 98 95 88
14 11 8 8 12 36 20 81 100 100 100 100 89 96 100 100 100 98 40 14 99 48 48 96 58 56 48 79 70 79 86 85 91 98 100 97 100 96 90 92 97 98 98
20 11 8 6 7 10 25 16 44 100 100 100 100 100 100 100 99 99 100 100 84 95 98 60 56 62 87 98 98 94 95 96 97 100 100 95 100 97 86 92 96 96 93

GFSMA_500_rhum_165.txt.gz
RH
42 42 43 45 53 65 68 69 71 68 61 79 79 82 96 74 58 40 21 24 30 29 31 16 28 40 36 23 21 20 41 78 89 91 74 63 33 19 13 12 16 23 32
34 33 34 36 40 43 42 50 53 69 70 61 70 71 90 97 82 60 49 27 21 22 24 23 21 32 43 31 21 35 54 81 90 91 95 90 76 68 51 37 25 22 29
35 35 35 35 35 36 36 36 35 38 48 68 86 89 78 98 100 92 71 55 22 18 16 26 16 20 27 47 45 22 60 84 87 84 91 77 86 90 83 71 55 42 32
24 24 23 22 22 26 31 35 37 37 35 47 60 88 68 72 90 97 96 84 44 22 18 19 28 23 25 27 39 24 31 76 86 74 81 77 77 78 82 79 72 62 57
17 19 22 24 24 23 23 22 27 29 32 37 34 50 84 71 70 81 100 97 81 39 24 26 25 33 31 30 37 40 22 50 85 81 64 64 65 70 66 60 68 79 74
13 14 12 12 13 14 17 20 19 22 22 25 33 34 38 59 61 65 72 95 96 74 46 39 38 30 41 33 31 48 39 26 50 90 80 72 76 83 81 64 53 54 54
15 13 14 16 14 12 11 10 14 12 13 14 21 28 33 92 85 55 70 76 98 100 89 77 70 49 40 46 37 45 52 42 29 44 83 87 82 74 84 82 63 54 58
30 31 30 29 26 25 22 20 19 14 12 15 10 14 22 35 59 92 72 86 82 96 96 95 88 88 70 55 57 38 38 49 45 38 39 42 40 44 53 79 83 64 61
29 27 26 24 22 22 20 20 20 20 16 14 17 11 10 19 34 37 91 96 85 75 90 98 92 92 93 88 71 65 47 45 46 45 45 41 46 51 42 40 74 82 67
20 19 18 17 16 18 16 16 21 24 20 16 13 15 11 9 21 26 36 87 96 91 94 96 94 95 95 88 89 85 79 54 46 52 49 44 41 38 63 42 53 84 91
26 23 22 20 20 20 21 20 21 25 29 27 18 11 18 15 11 17 22 33 71 92 71 86 99 98 98 97 96 96 98 96 87 49 60 54 50 43 40 48 41 51 88
20 14 10 9 8 8 8 11 13 18 21 24 22 21 12 16 18 15 18 21 26 53 68 69 89 95 98 98 97 97 97 97 97 85 47 55 55 59 60 57 40 40 70
5 4 3 3 3 3 3 3 3 4 8 13 20 16 18 15 14 19 20 19 20 24 46 59 50 89 97 96 97 97 97 97 97 97 87 38 40 54 62 79 41 45 27
3 3 4 18 25 30 39 32 26 17 6 3 5 13 10 14 16 14 16 19 18 18 20 27 35 72 96 97 97 98 97 96 97 97 96 91 55 58 61 75 48 64 52
6 15 44 45 50 47 45 45 41 38 31 29 14 3 3 6 8 15 14 15 16 18 16 17 42 44 99 81 92 96 84 96 97 97 97 98 92 70 63 70 64 81 82
22 45 66 71 66 67 64 62 51 47 46 52 31 27 22 7 3 4 12 14 16 16 17 17 36 96 97 90 88 88 94 97 97 97 96 96 94 94 76 73 79 85 80
35 35 40 61 69 77 75 77 85 72 71 70 60 50 44 24 13 3 3 11 14 15 16 15 22 60 87 57 95 97 95 95 97 86 95 95 93 95 95 86 78 82 84
24 25 34 34 60 78 78 81 92 88 69 79 80 64 66 62 46 20 3 3 10 14 15 20 27 30 31 56 76 93 93 97 93 90 98 97 99 84 86 90 92 94 88
30 30 29 30 35 63 93 78 78 90 77 86 85 67 59 75 72 65 23 2 3 11 15 31 27 30 37 54 66 60 86 86 90 94 97 93 93 98 91 82 79 76 88
22 22 17 18 28 33 92 89 80 77 82 88 89 86 84 70 76 75 40 5 2 6 52 76 55 44 33 37 47 46 85 86 78 71 81 92 92 82 80 87 82 78 86
11 23 19 12 15 18 66 81 89 81 81 96 99 96 100 83 100 99 58 12 2 3 18 72 88 54 33 43 47 40 93 96 97 77 88 76 72 66 65 67 74 77 90
13 11 23 21 12 9 15 77 58 94 80 82 100 100 100 100 100 100 81 98 34 48 98 98 91 57 41 43 50 47 51 72 63 61 66 82 83 72 68 68 78 92 95
39 21 14 24 18 10 8 24 58 72 100 82 85 100 100 100 100 100 75 98 100 12 100 60 52 72 54 58 66 81 74 67 52 60 68 66 64 69 68 74 85 84 99
41 44 35 17 22 13 8 7 22 32 79 100 86 100 93 98 100 100 91 100 80 97 99 68 51 55 56 59 74 67 75 71 88 91 81 74 68 79 87 84 91 84 95
54 51 50 35 20 22 14 9 8 15 33 96 100 98 100 99 96 100 100 100 100 72 100 31 20 29 55 62 71 84 85 70 74 90 99 90 95 99 88 89 81 70 71
45 42 46 52 41 23 23 15 9 10 9 38 95 100 100 100 100 100 99 100 100 100 27 15 14 27 50 69 73 91 90 83 73 86 94 96 91 87 98 96 96 82 68

GFSMA_500_rhum_171.txt.gz
RH
23 22 20 20 19 18 18 19 24 31 35 37 37 33 40 55 93 82 79 70 86 86 97 93 87 62 26 20 27 24 38 33 22 31 48 65 73 85 83 81 92 86 73
26 23 18 16 16 17 19 20 18 17 21 23 29 33 32 38 50 81 98 79 74 91 94 96 93 89 62 24 27 33 28 40 28 36 64 76 72 36 37 61 64 58 74
25 22 20 19 17 18 16 16 16 19 18 15 20 26 25 26 29 40 62 86 76 77 92 100 97 92 92 57 22 25 32 33 45 28 70 92 82 64 23 23 14 27 16
18 20 22 25 25 24 22 19 17 16 18 20 16 14 21 25 25 26 35 47 66 78 81 97 100 98 88 93 47 22 20 25 33 38 51 94 96 91 85 62 56 35 26
26 25 23 23 24 24 23 21 20 18 17 17 20 19 15 16 17 21 22 30 37 55 74 74 94 96 92 81 95 35 25 24 30 37 28 85 97 92 84 76 79 78 62
33 26 24 25 26 26 24 23 21 20 20 19 18 20 21 19 15 15 14 16 22 32 44 46 63 89 99 90 93 90 30 26 28 35 42 32 96 91 82 77 83 80 75
27 25 24 22 21 21 21 19 18 16 16 15 14 15 17 23 27 28 17 15 12 13 29 41 46 71 93 96 94 96 66 34 29 30 38 40 38 90 88 83 74 68 65
28 27 26 24 21 17 13 11 9 9 11 10 8 7 7 9 11 15 22 24 21 15 11 24 41 51 76 87 96 96 99 46 36 31 33 47 39 50 84 76 70 64 74
26 23 17 14 14 14 14 15 14 13 13 14 12 9 7 6 6 10 10 13 19 22 23 14 16 48 61 71 87 95 96 82 46 30 29 38 52 44 48 82 74 72 88
19 15 14 14 15 17 23 23 20 16 13 10 8 6 6 5 5 4 6 10 10 15 19 22 20 23 38 53 59 90 98 94 69 59 37 28 39 50 49 38 76 87 88
19 21 21 24 30 28 22 15 8 3 3 3 3 2 2 2 2 2 3 5 8 10 12 17 21 19 22 39 42 73 95 98 84 69 68 57 32 31 41 51 38 45 66
27 24 27 26 15 10 6 4 4 4 3 4 4 8 10 11 15 13 3 2 3 7 10 10 18 21 19 18 36 58 91 97 97 91 94 86 72 45 37 40 50 45 43
35 34 28 13 8 7 7 6 5 5 4 7 22 24 30 21 20 20 16 11 3 2 6 12 14 20 21 19 37 43 66 97 99 96 97 96 94 98 70 54 46 44 46
41 34 12 9 9 9 9 7 6 6 6 19 27 21 22 28 39 44 34 23 17 6 2 6 15 18 22 20 22 30 97 94 97 97 96 97 97 98 97 94 87 62 51
40 10 8 10 11 11 11 8 8 7 10 20 22 21 19 38 60 66 66 42 22 18 7 3 6 15 18 23 20 15 36 24 60 84 98 97 98 93 97 95 98 96 83
14 7 11 12 13 12 11 9 9 10 10 17 19 19 18 49 68 72 86 75 49 30 18 8 4 7 15 19 23 18 14 13 96 95 97 96 96 98 97 91 92 97 96
7 11 13 14 14 11 9 9 15 16 12 12 19 19 21 49 67 63 65 71 66 56 34 25 11 9 9 16 20 23 16 13 98 98 88 96 94 80 76 85 93 96 97
12 15 16 15 14 12 9 11 16 26 13 11 15 16 15 26 64 69 60 68 67 74 50 29 30 14 8 9 16 20 20 15 35 75 57 41 64 58 51 74 86 92 97
17 16 13 14 14 17 26 31 35 36 45 16 15 20 14 10 33 54 62 60 53 61 57 43 34 26 25 8 10 15 19 17 22 39 37 25 39 34 55 62 63 87 87
9 8 12 31 42 47 54 58 52 44 42 42 19 18 18 9 8 24 42 61 50 54 69 59 55 41 29 33 7 11 15 19 17 43 48 30 23 28 92 83 72 98 75
9 10 19 38 52 56 61 57 51 50 49 46 45 23 20 17 9 8 19 52 68 68 78 67 57 48 41 52 17 7 12 15 17 91 47 44 24 79 90 93 94 100 80
13 14 15 17 18 22 36 36 43 50 49 43 42 43 24 21 16 9 9 29 76 86 98 100 66 53 58 59 36 10 8 12 15 37 48 52 29 89 93 93 97 95 96
12 11 11 12 13 13 13 13 14 21 27 38 42 34 40 26 20 14 10 14 75 90 83 81 72 68 67 57 57 18 7 8 11 36 46 53 33 25 80 92 91 83 91
11 12 12 14 15 14 13 12 12 12 12 13 18 31 27 33 24 19 13 12 69 99 95 96 89 77 75 62 52 22 6 6 9 21 45 62 39 27 41 36 70 76 86
13 14 15 15 15 16 16 15 13 11 10 11 11 11 22 22 25 22 18 11 40 100 100 96 100 81 71 98 79 12 5 5 12 73 41 54 53 31 41 42 41 49 90
14 15 16 18 19 20 20 18 15 13 11 9 9 9 10 16 19 19 21 14 20 100 100 100 100 100 100 92 42 7 4 72 100 98 97 63 59 36 36 37 52 48 54